Вернуться в каталог

SL-16 DEB

АктивенLEO
NORAD 25411·DEBRIS·🇷🇺 Russia

Запущен Jul 28, 1998 с Baikonur Cosmodrome

Loading…

Ближайшие Пролёты (ближайшие 24 часа)

TLE

СвежийSource: Space-Track

Эпоха: Sep 14, 2026, 09:16 UTC

1 25411U 98045E   26257.38617632  .00000071  00000-0  10864-3 0  9997
2 25411  70.9839 240.0727 0211613 345.1203  14.3728 13.71385635406989

Отслеживайте SL-16 DEB в реальном времени с AllMySat

Download on the App Store